This is the latest recevied weather packets stored in our database for station/object VK4TOM-13. If no packets are shown the sender has not sent any weather packets the latest 10 day(s).
| Time | Temp. | Humidity | Pressure | Rain* | Wind** | Luminosity | Snow |
|---|---|---|---|---|---|---|---|
| 1787973912 | 27.22° C | 70% | 1023.4 hPa | 0 mm | - | - | - |
| 1787972710 | 26.67° C | 70% | 1023.6 hPa | 0 mm | - | - | - |
| 1787972109 | 27.78° C | 70% | 1023.8 hPa | 0 mm | - | - | - |
| 1787970908 | 26.67° C | 70% | 1024 hPa | 0 mm | - | - | - |
| 1787970172 | 26.11° C | 70% | 1024.1 hPa | 0 mm | - | - | - |
| 1787969571 | 26.67° C | 70% | 1024.3 hPa | 0 mm | - | - | - |
| 1787967767 | 26.67° C | 70% | 1024.9 hPa | 0 mm | - | - | - |
| 1787967166 | 27.22° C | 70% | 1024.9 hPa | 0 mm | - | - | - |
| 1787966565 | 26.11° C | 70% | 1025.2 hPa | 0 mm | - | - | - |
| 1787965964 | 26.11° C | 70% | 1025.3 hPa | 0 mm | - | - | - |
| 1787964148 | 25.56° C | 70% | 1025.7 hPa | 0 mm | - | - | - |
| 1787963398 | 26.11° C | 70% | 1025.8 hPa | 0 mm | - | - | - |
| 1787962428 | 25° C | 70% | 1025.9 hPa | 0 mm | - | - | - |
| 1787960718 | 23.33° C | 70% | 1026 hPa | 0 mm | - | - | - |
| 1787960538 | 23.33° C | 70% | 1026 hPa | 0 mm | - | - | - |
| 1787960189 | 23.33° C | 70% | 1026 hPa | 0 mm | - | - | - |
| 1787958987 | 22.22° C | 70% | 1026.1 hPa | 0 mm | - | - | - |
| 1787958386 | 21.67° C | 70% | 1026.1 hPa | 0 mm | - | - | - |
| 1787957785 | 21.67° C | 70% | 1026.1 hPa | 0 mm | - | - | - |
| 1787956586 | 20.56° C | 70% | 1026 hPa | 0 mm | - | - | - |
| 1787955381 | 19.44° C | 70% | 1026 hPa | 0 mm | - | - | - |
| 1787954780 | 18.89° C | 70% | 1025.8 hPa | 0 mm | - | - | - |
| 1787954592 | 18.89° C | 70% | 1025.8 hPa | 0 mm | - | - | - |
| 1787954004 | 18.33° C | 70% | 1025.7 hPa | 0 mm | - | - | - |
| 1787953404 | 18.33° C | 70% | 1025.6 hPa | 0 mm | - | - | - |
* Rain since midnight (hover to see other rain measurements)
** Current wind speed in m/s (hover to see current wind gust speed)